| time (UTC) | temp C | wind direction | speed KPH | gust KPH | rain 1hr cm | rain 24hr cm | rain mn cm | humidity % | barometer mb |
| 20260505070036 | 7 | 207 | 9.7 | 20.9 | 0.00 | 0.20 | 0.00 | 81 | 1008.5 |
| 20260505064541 | 8 | 247 | 12.9 | 25.7 | 0.00 | 0.25 | 0.00 | 81 | 1008.1 |
| 20260505063037 | 8 | 259 | 11.3 | 27.4 | 0.00 | 0.25 | 0.00 | 80 | 1007.8 |
| 20260505061546 | 8 | 243 | 12.9 | 29.0 | 0.00 | 0.25 | 0.00 | 80 | 1007.6 |
| 20260505060034 | 8 | 267 | 11.3 | 27.4 | 0.00 | 0.25 | 0.00 | 80 | 1007.4 |
| 20260505054558 | 8 | 281 | 9.7 | 29.0 | 0.00 | 0.28 | 0.00 | 79 | 1006.9 |
| 20260505053036 | 8 | 287 | 12.9 | 22.5 | 0.00 | 0.28 | 0.00 | 79 | 1006.7 |
| 20260505051535 | 8 | 233 | 12.9 | 22.5 | 0.00 | 0.28 | 0.00 | 79 | 1006.5 |
| 20260505041535 | 9 | 227 | 9.7 | 25.7 | 0.00 | 0.33 | 0.00 | 77 | 1005.5 |
| 20260505040035 | 9 | 240 | 12.9 | 27.4 | 0.00 | 0.33 | 0.00 | 76 | 1005.5 |
| 20260505034533 | 9 | 246 | 12.9 | 27.4 | 0.00 | 0.33 | 0.00 | 76 | 1005.3 |
| 20260505033037 | 10 | 207 | 16.1 | 30.6 | 0.00 | 0.33 | 0.00 | 74 | 1005.0 |
| 20260505031546 | 10 | 246 | 14.5 | 24.1 | 0.00 | 0.33 | 0.00 | 74 | 1004.8 |
| 20260505030035 | 10 | 249 | 16.1 | 29.0 | 0.00 | 0.33 | 0.00 | 73 | 1004.7 |
| 20260505024538 | 10 | 217 | 12.9 | 30.6 | 0.00 | 0.33 | 0.33 | 73 | 1004.6 |
| 20260505023035 | 10 | 259 | 16.1 | 38.6 | 0.00 | 0.33 | 0.33 | 72 | 1004.3 |
| 20260505021538 | 10 | 252 | 14.5 | 29.0 | 0.00 | 0.33 | 0.33 | 73 | 1004.1 |
| 20260505020035 | 10 | 211 | 9.7 | 22.5 | 0.00 | 0.33 | 0.33 | 74 | 1003.9 |
| 20260505014538 | 10 | 234 | 11.3 | 25.7 | 0.00 | 0.38 | 0.33 | 72 | 1003.7 |
| 20260505013036 | 10 | 251 | 9.7 | 22.5 | 0.00 | 0.38 | 0.33 | 72 | 1003.8 |
| 20260505011536 | 10 | 226 | 12.9 | 27.4 | 0.00 | 0.38 | 0.33 | 72 | 1003.7 |
| 20260505010035 | 10 | 240 | 14.5 | 33.8 | 0.00 | 0.38 | 0.33 | 71 | 1003.6 |
| 20260505004545 | 10 | 244 | 9.7 | 25.7 | 0.00 | 0.53 | 0.33 | 70 | 1003.6 |
| 20260505003034 | 10 | 221 | 12.9 | 27.4 | 0.00 | 0.53 | 0.33 | 68 | 1003.5 |
| 20260505001537 | 10 | 258 | 11.3 | 30.6 | 0.00 | 0.53 | 0.33 | 64 | 1003.4 |
| 20260505000051 | 11 | 225 | 17.7 | 38.6 | 0.00 | 0.53 | 0.33 | 59 | 1003.5 |
| 20260504234535 | 10 | 247 | 12.9 | 29.0 | 0.00 | 1.02 | 0.33 | 61 | 1002.8 |
| 20260504233040 | 10 | 219 | 8.0 | 17.7 | 0.00 | 1.02 | 0.33 | 66 | 1002.6 |
| 20260504231532 | 10 | 240 | 6.4 | 14.5 | 0.00 | 1.02 | 0.33 | 65 | 1002.4 |
| 20260504230046 | 10 | 215 | 6.4 | 22.5 | 0.00 | 1.02 | 0.33 | 64 | 1002.2 |
| 20260504224533 | 11 | 213 | 9.7 | 24.1 | 0.00 | 1.40 | 0.33 | 61 | 1002.2 |
| 20260504223032 | 11 | 239 | 11.3 | 25.7 | 0.00 | 1.40 | 0.33 | 59 | 1002.3 |
| 20260504221544 | 11 | 219 | 14.5 | 33.8 | 0.00 | 1.40 | 0.33 | 58 | 1001.8 |
| 20260504220035 | 11 | 230 | 12.9 | 43.5 | 0.00 | 1.40 | 0.33 | 60 | 1002.0 |
| 20260504214538 | 11 | 238 | 16.1 | 33.8 | 0.00 | 1.80 | 0.33 | 57 | 1001.7 |
| 20260504213042 | 11 | 262 | 14.5 | 38.6 | 0.00 | 1.80 | 0.33 | 58 | 1001.7 |
| 20260504211535 | 11 | 220 | 14.5 | 33.8 | 0.00 | 1.80 | 0.33 | 57 | 1001.4 |
| 20260504210032 | 11 | 238 | 19.3 | 38.6 | 0.00 | 1.80 | 0.33 | 58 | 1001.4 |
| 20260504204541 | 12 | 268 | 12.9 | 45.1 | 0.00 | 1.93 | 0.33 | 56 | 1001.2 |
| 20260504203038 | 11 | 259 | 19.3 | 38.6 | 0.00 | 1.93 | 0.33 | 56 | 1001.0 |
| 20260504201537 | 11 | 229 | 17.7 | 54.7 | 0.00 | 1.93 | 0.33 | 62 | 1000.7 |
| 20260504200036 | 11 | 269 | 20.9 | 43.5 | 0.00 | 1.93 | 0.33 | 64 | 1000.4 |
| 20260504194537 | 11 | 209 | 16.1 | 48.3 | 0.00 | 1.96 | 0.33 | 68 | 999.9 |
| 20260504193035 | 11 | 194 | 24.1 | 57.9 | 0.00 | 1.96 | 0.33 | 68 | 999.5 |
| 20260504191534 | 11 | 271 | 25.7 | 46.7 | 0.00 | 1.96 | 0.33 | 71 | 999.1 |
| 20260504190034 | 11 | 229 | 17.7 | 41.8 | 0.00 | 1.96 | 0.33 | 74 | 998.9 |
| 20260504184535 | 10 | 269 | 17.7 | 45.1 | 0.00 | 2.03 | 0.33 | 77 | 999.0 |
| 20260504183036 | 9 | 247 | 19.3 | 43.5 | 0.00 | 2.03 | 0.33 | 78 | 998.8 |
| 20260504181533 | 8 | 245 | 19.3 | 40.2 | 0.00 | 2.03 | 0.33 | 81 | 998.4 |
| 20260504180038 | 7 | 244 | 19.3 | 38.6 | 0.00 | 2.03 | 0.33 | 82 | 998.3 |
| 20260504174538 | 7 | 269 | 20.9 | 41.8 | 0.00 | 2.03 | 0.33 | 83 | 998.1 |
| 20260504173037 | 7 | 228 | 16.1 | 33.8 | 0.00 | 2.03 | 0.33 | 84 | 998.1 |
| 20260504171536 | 7 | 231 | 17.7 | 38.6 | 0.00 | 2.03 | 0.33 | 85 | 997.7 |
| 20260504081537 | 3 | 225 | 14.5 | 38.6 | 0.03 | 1.88 | 0.18 | 93 | 977.9 |